Regional Weather Roundup
Issued by NWS

Home | Current Version | Previous Version | Text Only | Print | Product List | Glossary Off
Versions: 1 2 3 4 5 6 7 8 9 10 11 12 13 14 15 16 17 18 19 20 21 22 23 24 25 26 27 28 29 30 31 32 33 34 35 36 37 38 39 40 41 42 43 44 45 46 47 48

000
ASUS45 KSLC 240410
RWRUT

UTAH REGIONAL WEATHER ROUNDUP
NATIONAL WEATHER SERVICE SALT LAKE CITY UT
900 PM MST TUE DEC 23 2014

UTZ001>011-023>025-240500-

NORTHERN UTAH

CITY           SKY/WX    TMP DP  RH WIND       PRES   REMARKS
BRIGHAM CITY     N/A     28  21  75 E3        30.36F
HILL AFB         N/A     28  16  59 SE9       30.34F WCI  20
LOGAN            N/A     26  21  81 CALM      30.35F
OGDEN            N/A     28  20  71 S8        30.34F WCI  20
PROVO AIRPORT  NOT AVBL
SALT LAKE CITY   N/A     30  19  63 SE5       30.36R WCI  25
VERNAL           N/A     24  13  62 NW5       30.27S WCI  18
WENDOVER         N/A     28  18  64 W3        30.34S
HEBER CITY       N/A     21  18  86 E5        30.32S WCI  15
WEST JORDAN    CLEAR     28  23  80 W3        30.36S

$$

UTZ012>022-026-027-240500-

SOUTHERN/CENTRAL UTAH

CITY           SKY/WX    TMP DP  RH WIND       PRES   REMARKS
BLANDING         N/A     25  14  63 S6        30.31S WCI  18
BRYCE CANYON     N/A     21  12  68 NW9       30.28R WCI  11
CEDAR CITY       N/A     25  12  58 N8        30.31S WCI  16
DELTA            N/A     29  20  69 SW5       30.36S WCI  24
MILFORD          N/A     23  15  71 W8        30.33F WCI  14
MOAB/CYNLANDS    N/A     28  20  71 CALM      30.27S
PRICE            N/A     29   8  41 CALM      30.25F
ST GEORGE        N/A     45  10  24 CALM      30.31R
KANAB            N/A     36   9  32 NW9       30.32R WCI  29

$$

REGIONAL REPORTS     COLORADO/ARIZONA

CITY           SKY/WX    TMP DP  RH WIND       PRES   REMARKS
CRAIG, CO        N/A      7   4  87 E3        30.26F
GRAND JUNCTION   N/A     25  17  72 SE3       30.28F
RIFLE          CLOUDY    22  11  62 SE9       30.29S WCI  12
MONTROSE         N/A     22  12  65 SE12      30.30S WCI  10
CORTEZ           N/A     22  10  60 E3        30.23S
PAGE, AZ         N/A     38  10  31 S6        30.27S WCI  33
GRAND CANYON     N/A     20  13  74 CALM      30.27S
KINGMAN          N/A     36  19  50 E10       30.27R WCI  28
FLAGSTAFF        N/A     28   3  34 NE16G23   30.21R WCI  16

$$

REGIONAL REPORTS    NEVADA/IDAHO/WYOMING

CITY           SKY/WX    TMP DP  RH WIND       PRES   REMARKS
LAS VEGAS, NV    N/A     52  20  28 SW8       30.25S
ELY              N/A     25  18  74 S10       30.32S WCI  15
ELKO             N/A     31  24  75 CALM      30.28F
POCATELLO, ID    N/A     26  22  84 SW5       30.30F WCI  20
BURLEY         MOCLDY    29  26  89 CALM      30.27F
EVANSTON, WY   MOCLDY    18  11  74 SW10      30.27F WCI   6
ROCK SPRINGS     N/A     19  10  68 W20       30.20F WCI   3

$$



USA.gov is the U.S. government's official web portal to all federal, state and local government web resources and services.